Jackson, MI

10:59 AM EST on February 19, 2017 (GMT -0500)
Jackson County-Reynolds

Weather History for KJXN - August, 2013

Change the Weather History Date:

Monday, August 12, 2013

  Actual Average Record
Temperature  
Mean Temperature 68 °F 70 °F  
Max Temperature 75 °F 81 °F 93 °F (2016)
Min Temperature 61 °F 60 °F 44 °F (1967)
Degree Days  
Heating Degree Days 0 1  
Month to date heating degree days 8 8  
Since 1 June heating degree days 86 74  
Since 1 July heating degree days 29 19  
Cooling Degree Days 3 6  
Month to date cooling degree days 39 72  
Year to date cooling degree days 438 437  
Since 1 June cooling degree days 371 400  
Growing Degree Days 18 (Base 50)    
Moisture  
Dew Point 64 °F    
Average Humidity 87    
Maximum Humidity 100    
Minimum Humidity 74    
Precipitation  
Precipitation 2.09 in 0.11 in 2.49 in (2016)
Month to date precipitation 2.81 1.38  
Year to date precipitation 22.03 18.83  
Sea Level Pressure  
Sea Level Pressure 29.97 in    
Wind  
Wind Speed 4 mph (SW)    
Max Wind Speed 13 mph    
Max Gust Speed 26 mph    
Visibility 8 miles    
Events Rain , Thunderstorm    
T = Trace of Precipitation, MM = Missing Value Source: NWS Daily Summary

Daily Weather History Graph

Daily Weather History Graph

Search for Another Location

Airport or City:

Trip Planner

Search our weather history database for the weather conditions in past years. The results will help you decide how hot, cold, wet, or windy it might be!

Date:

Astronomy

Aug. 12, 2013 Rise Set
Actual Time 6:42 AM EDT 8:42 PM EDT
Civil Twilight 6:11 AM EDT 9:13 PM EDT
Nautical Twilight 5:34 AM EDT 9:50 PM EDT
Astronomical Twilight 4:53 AM EDT 10:30 PM EDT
Moon 12:40 PM EDT (8/12) 11:26 PM EDT (8/12)
Length of Visible Light 15h 01m
Length of Day
14h 00m
Waxing Crescent, 31% of the Moon is Illuminated
Aug 12
Waxing Crescent
Aug 14
First Quarter
Aug 20
Full
Aug 28
Last Quarter
Sep 5
New

Hourly Weather History & Observations

Time (EDT) Temp. Dew Point Humidity Pressure Visibility Wind Dir Wind Speed Gust Speed Precip Events Conditions
12:56 AM 62.1 °F 57.0 °F 84% 30.07 in 10.0 mi Calm Calm - N/A   Mostly Cloudy
1:56 AM 62.1 °F 57.9 °F 86% 30.06 in 10.0 mi Calm Calm - N/A   Mostly Cloudy
2:56 AM 64.0 °F 57.9 °F 80% 30.05 in 10.0 mi Calm Calm - N/A   Overcast
3:56 AM 64.0 °F 59.0 °F 84% 30.04 in 10.0 mi Calm Calm - N/A   Overcast
4:56 AM 64.0 °F 60.1 °F 87% 30.03 in 10.0 mi Calm Calm - 0.00 in   Overcast
5:56 AM 63.0 °F 61.0 °F 93% 30.03 in 10.0 mi SW 4.6 mph - 0.02 in Rain Light Rain
6:43 AM 64.4 °F 60.8 °F 88% 30.03 in 10.0 mi Calm Calm - 0.01 in Rain , Thunderstorm Light Rain
6:56 AM 63.0 °F 61.0 °F 93% 30.04 in 4.0 mi NNW 3.5 mph - 0.11 in Rain , Thunderstorm Heavy Thunderstorms and Rain
7:07 AM 62.6 °F 62.6 °F 100% 30.06 in 6.0 mi Calm Calm - 0.02 in Rain Light Rain
7:12 AM 62.6 °F 60.8 °F 94% 30.06 in 2.5 mi Calm Calm - 0.12 in Rain Rain
7:15 AM 62.6 °F 60.8 °F 94% 30.05 in 1.8 mi Calm Calm - 0.17 in Rain Heavy Rain
7:24 AM 62.6 °F 62.6 °F 100% 30.04 in 3.0 mi SSW 4.6 mph - 0.20 in Rain Light Rain
7:56 AM 64.0 °F 62.1 °F 93% 30.04 in 10.0 mi WSW 4.6 mph - 0.21 in Rain Light Rain
8:56 AM 64.0 °F 62.1 °F 93% 30.03 in 10.0 mi SW 5.8 mph - 0.14 in Rain Light Rain
9:56 AM 64.0 °F 62.1 °F 93% 30.01 in 6.0 mi SSW 5.8 mph - 0.11 in Rain Rain
10:56 AM 64.0 °F 62.1 °F 93% 30.03 in 7.0 mi SW 10.4 mph - 0.20 in Rain Rain
11:12 AM 64.4 °F 62.6 °F 94% 30.03 in 2.5 mi SW 8.1 mph - 0.11 in Rain Heavy Rain
11:20 AM 64.4 °F 62.6 °F 94% 30.03 in 8.0 mi SW 5.8 mph - 0.12 in Rain Light Rain
11:48 AM 64.4 °F 62.6 °F 94% 30.02 in 6.0 mi WSW 3.5 mph - 0.19 in Rain Rain
11:56 AM 64.0 °F 62.1 °F 93% 30.01 in 10.0 mi SW 3.5 mph - 0.20 in Rain Light Rain
12:09 PM 64.4 °F 62.6 °F 94% 30.02 in 8.0 mi WSW 4.6 mph - 0.01 in Rain Light Rain
12:17 PM 64.4 °F 62.6 °F 94% 30.02 in 1.8 mi West 4.6 mph - 0.15 in Rain Heavy Rain
12:51 PM 64.4 °F 62.6 °F 94% 30.01 in 3.0 mi Calm Calm - 0.64 in Rain Heavy Rain
12:56 PM 64.9 °F 63.0 °F 93% 30.01 in 5.0 mi Calm Calm - 0.64 in Rain Light Rain
1:08 PM 66.2 °F 64.4 °F 94% 30.00 in 10.0 mi SSW 3.5 mph - 0.00 in Rain Light Rain
1:22 PM 66.2 °F 64.4 °F 94% 30.00 in 10.0 mi South 3.5 mph - 0.00 in   Overcast
1:40 PM 66.2 °F 64.4 °F 94% 30.01 in 10.0 mi SSW 3.5 mph - 0.00 in   Overcast
1:56 PM 66.9 °F 64.9 °F 93% 29.99 in 10.0 mi South 4.6 mph - 0.00 in   Overcast
2:17 PM 66.2 °F 64.4 °F 94% 29.99 in 10.0 mi South 5.8 mph - N/A   Overcast
2:56 PM 69.1 °F 64.9 °F 87% 29.97 in 10.0 mi South 6.9 mph - N/A   Overcast
3:04 PM 69.8 °F 66.2 °F 88% 29.97 in 10.0 mi South 4.6 mph - N/A   Overcast
3:56 PM 73.9 °F 68.0 °F 82% 29.94 in 10.0 mi Variable 6.9 mph - N/A   Mostly Cloudy
4:56 PM 75.0 °F 66.9 °F 76% 29.91 in 10.0 mi SSE 6.9 mph - N/A   Partly Cloudy
5:56 PM 75.0 °F 68.0 °F 79% 29.89 in 10.0 mi South 5.8 mph - N/A   Scattered Clouds
6:56 PM 75.0 °F 68.0 °F 79% 29.86 in 10.0 mi SSE 3.5 mph - N/A   Mostly Cloudy
7:24 PM 69.8 °F 64.4 °F 83% 29.88 in 2.5 mi WSW 12.7 mph 20.7 mph 0.22 in Rain Rain
7:40 PM 68.0 °F 62.6 °F 83% 29.88 in 3.0 mi WNW 10.4 mph 19.6 mph 0.37 in Rain Heavy Rain
7:43 PM 68.0 °F 62.6 °F 83% 29.87 in 1.8 mi Variable 4.6 mph 19.6 mph 0.41 in Rain Heavy Rain
7:47 PM 68.0 °F 64.4 °F 88% 29.88 in 2.0 mi Variable 5.8 mph 19.6 mph 0.41 in Rain Light Rain
7:56 PM 68.0 °F 66.0 °F 93% 29.87 in 10.0 mi North 5.8 mph - 0.42 in Rain Light Rain
8:56 PM 68.0 °F 66.0 °F 93% 29.87 in 10.0 mi SSW 3.5 mph - N/A   Mostly Cloudy
9:20 PM 68.0 °F 66.2 °F 94% 29.88 in 10.0 mi Calm Calm - 0.04 in   Mostly Cloudy
9:56 PM 66.9 °F 66.0 °F 97% 29.88 in 9.0 mi Calm Calm - 0.04 in   Overcast
10:17 PM 66.2 °F 66.2 °F 100% 29.89 in 9.0 mi SW 3.5 mph - 0.00 in Thunderstorm Overcast
10:32 PM 68.0 °F 66.2 °F 94% 29.90 in 10.0 mi SSW 8.1 mph - 0.00 in   Overcast
10:52 PM 68.0 °F 66.2 °F 94% 29.89 in 10.0 mi Calm Calm - 0.00 in   Overcast
10:56 PM 68.0 °F 66.0 °F 93% 29.89 in 10.0 mi Calm Calm - 0.00 in   Overcast
11:20 PM 66.2 °F 66.2 °F 100% 29.88 in 2.0 mi Calm Calm - N/A   Overcast
11:30 PM 66.2 °F 66.2 °F 100% 29.88 in 5.0 mi WNW 3.5 mph - N/A   Overcast
11:56 PM 66.0 °F 64.9 °F 96% 29.88 in 5.0 mi NW 3.5 mph - N/A   Scattered Clouds